TimeAST,TemperatureF,Dew PointF,Humidity,Sea Level PressureIn,VisibilityMPH,Wind Direction,Wind SpeedMPH,Gust SpeedMPH,PrecipitationIn,Events,Conditions,WindDirDegrees,DateUTC
12:55 AM,70.7,61.2,72,29.83,6.2,ESE,6.9,-,N/A,,Clear,120,2013-03-05 21:55:00
1:55 AM,68.9,58.8,70,29.82,6.2,SE,6.9,-,N/A,,Clear,130,2013-03-05 22:55:00
2:55 AM,67.8,57.4,69,29.81,6.2,SE,6.9,-,N/A,,Clear,130,2013-03-05 23:55:00
3:55 AM,66.0,56.1,70,29.81,6.2,SE,5.8,-,N/A,,Clear,140,2013-03-06 00:55:00
4:55 AM,68.2,60.1,75,29.82,6.2,ESE,9.2,-,N/A,,Clear,120,2013-03-06 01:55:00
5:55 AM,68.0,59.7,75,29.83,6.2,ESE,6.9,-,N/A,,Clear,120,2013-03-06 02:55:00
6:55 AM,69.1,58.6,69,29.87,6.2,SE,6.9,-,N/A,,Clear,130,2013-03-06 03:55:00
7:55 AM,74.3,59.9,61,29.89,6.2,SE,8.1,-,N/A,,Partly Cloudy,130,2013-03-06 04:55:00
8:55 AM,79.0,51.1,38,29.92,6.2,SSE,8.1,-,N/A,,Clear,150,2013-03-06 05:55:00
9:55 AM,84.9,43.9,24,29.92,6.2,SSE,10.4,-,N/A,,Partly Cloudy,160,2013-03-06 06:55:00
10:55 AM,91.2,32.5,12,29.89,6.2,South,17.3,-,N/A,,Scattered Clouds,170,2013-03-06 07:55:00
11:55 AM,93.7,24.4,8,29.86,5.6,South,20.7,-,N/A,,Haze,180,2013-03-06 08:55:00
12:55 PM,95.4,25.7,8,29.83,6.2,South,17.3,-,N/A,,Partly Cloudy,190,2013-03-06 09:55:00
1:55 PM,95.9,26.2,8,29.81,6.2,SSW,15.0,-,N/A,,Partly Cloudy,200,2013-03-06 10:55:00
2:55 PM,95.9,26.2,8,29.80,6.2,SSW,15.0,-,N/A,,Partly Cloudy,210,2013-03-06 11:55:00
3:55 PM,95.5,22.8,7,29.79,6.2,SSW,11.5,-,N/A,,Clear,200,2013-03-06 12:55:00
4:55 PM,92.5,39.4,16,29.78,6.2,SSE,10.4,-,N/A,,Clear,150,2013-03-06 13:55:00
5:05 PM,91.4,41.0,17,29.76,6.2,ESE,16.1,-,N/A,,Clear,110,2013-03-06 14:05:00
5:55 PM,85.5,48.4,28,29.78,6.2,East,11.5,-,N/A,,Clear,100,2013-03-06 14:55:00
6:55 PM,80.6,52.5,38,29.79,6.2,ESE,9.2,-,N/A,,Clear,120,2013-03-06 15:55:00
7:55 PM,77.9,54.9,45,29.81,6.2,Calm,Calm,-,N/A,,Clear,0,2013-03-06 16:55:00
8:55 PM,77.2,52.9,43,29.84,6.2,West,9.2,-,N/A,,Clear,280,2013-03-06 17:55:00
9:55 PM,75.7,53.2,45,29.86,6.2,NW,12.7,-,N/A,,Clear,320,2013-03-06 18:55:00
10:55 PM,73.4,61.2,65,29.86,6.2,Calm,Calm,-,N/A,,Clear,0,2013-03-06 19:55:00
11:55 PM,72.1,64.6,77,29.87,6.2,ENE,13.8,-,N/A,,Clear,70,2013-03-06 20:55:00